Zhongxing 1

operational
NORAD ID: 18922 Int'l Des: 1988-014 Owner: CHIS Country: CN
MEOCIRCULARGSO

About Zhongxing 1

Description loading...

Live Position

Loading 3D Globe...

Upcoming Passes

Altitude History

Altitude vs Time

uPlot chart will show altitude changes over time

Two-Line Element Set

1 18922U 88014A 26061.61959315 -.00000064 00000-0 00000-0 0 9998
2 18922 13.3490 340.4561 0003361 185.9524 285.6044 1.00301168139040
Epoch: Mar 2, 2026 • Age: 26 hours

Current Status

Altitude 35781.7 km
Velocity 3.07 km/s
Sub-Earth Point -13.15°S, 68.93°E
Launch Date Mar 7, 1988
Age 37.9 years
Type other

Technical Details

Classification Payload
Mass 460.00 kg
Dry Mass 460.00 kg
Total Mass 1040.00 kg
Length 1.60 m
Diameter 2.10 m
Span 2.10 m
Shape Cyl + Ant
Manufacturer CAST
Bus Type DFH-2
Phase Status In Orbit
Owner/State CHIS/CN

Large Constellations

Loading constellations...